Date,TemperatureHighF,TemperatureAvgF,TemperatureLowF,DewpointHighF,DewpointAvgF,DewpointLowF,HumidityHigh,HumidityAvg,HumidityLow,PressureMaxIn,PressureMinIn,WindSpeedMaxMPH,WindSpeedAvgMPH,GustSpeedMaxMPH,PrecipitationSumIn
2013-3-1,37.2,30.2,27.1,32.5,27.6,24.9,97,90,78,29.99,29.92,13,6,16,0.00
2013-3-2,37.9,28.8,23.6,30.7,26.0,20.2,96,90,71,30.00,29.89,15,8,20,0.03
2013-3-3,31.6,23.5,19.7,22.0,17.7,15.0,91,79,60,30.05,29.99,14,10,21,0.01
2013-3-4,49.6,28.3,21.4,25.0,16.5,14.0,78,65,28,30.22,30.09,13,9,18,0.00
2013-3-5,47.4,41.4,31.1,46.6,35.1,24.8,98,80,51,30.11,29.64,16,2,23,0.65
2013-3-6,27.5,25.5,23.1,24.6,23.7,21.9,96,93,87,30.24,29.83,22,16,33,0.01
2013-3-7,37.5,28.3,24.5,32.2,25.3,22.5,95,89,77,30.37,30.24,14,10,23,0.04
2013-3-8,47.8,33.4,23.7,31.7,25.4,21.4,92,74,49,30.41,30.31,11,8,15,0.00
2013-3-9,64.5,45.4,29.6,33.9,27.1,21.0,78,52,29,30.36,30.23,7,2,15,0.00
2013-3-10,63.2,52.0,44.7,35.7,32.1,27.9,57,47,35,30.24,30.08,9,2,21,0.00
2013-3-11,52.7,49.0,46.0,49.8,45.7,35.0,99,89,55,30.10,29.79,9,4,25,0.72
2013-3-12,50.5,42.2,34.4,50.0,37.9,31.6,99,85,64,30.05,29.76,16,8,24,0.39
2013-3-13,45.0,35.2,26.0,31.7,23.9,16.5,82,64,46,30.21,30.05,20,12,29,0.00
2013-3-14,46.0,30.4,20.8,22.4,16.9,14.6,78,59,36,30.35,30.20,18,10,26,0.00
2013-3-15,66.9,47.2,31.7,41.9,31.0,15.4,79,56,28,30.26,29.93,10,4,16,0.00
2013-3-16,74.3,62.3,54.4,48.8,44.4,41.0,61,53,37,29.93,29.70,11,3,19,0.00
2013-3-17,72.1,60.4,46.2,49.0,46.4,42.8,88,61,39,29.90,29.75,6,2,15,0.00
2013-3-18,46.2,40.8,36.6,43.6,39.6,35.5,99,95,88,29.97,29.81,7,2,14,0.57
2013-3-19,54.4,42.7,33.8,42.2,31.1,14.4,99,68,36,30.09,29.86,18,8,26,0.00
2013-3-20,53.5,38.3,27.1,29.1,16.6,10.1,94,43,26,30.12,29.85,16,7,23,0.00
2013-3-21,36.2,26.1,17.7,25.4,15.3,11.5,93,65,44,30.02,29.82,16,10,26,0.00
2013-3-22,47.7,31.5,20.0,22.9,15.7,10.9,73,53,32,30.11,30.01,9,3,12,0.00
2013-3-23,55.4,48.8,43.0,45.1,41.2,38.5,85,75,65,29.97,29.84,8,3,12,0.03
2013-3-24,44.0,40.0,35.5,43.5,38.7,34.7,99,95,83,29.89,29.47,8,2,22,0.91
2013-3-25,36.2,30.6,26.3,35.7,25.4,19.6,98,81,63,29.95,29.52,15,10,31,0.05
2013-3-26,36.2,28.0,24.4,31.6,25.3,22.5,100,90,77,30.26,29.95,16,12,25,0.02
2013-3-27,42.9,31.6,26.1,31.3,25.4,21.3,95,79,58,30.35,30.24,14,10,25,0.02
2013-3-28,50.5,35.9,27.1,28.7,22.7,20.5,77,60,37,30.36,30.26,14,8,20,0.00
2013-3-29,55.8,38.6,30.4,37.7,28.3,20.1,97,69,31,30.36,30.26,11,2,18,0.09
2013-3-30,60.5,46.5,36.2,45.7,39.4,35.4,99,79,50,30.27,30.04,5,0,12,0.17
2013-3-31,60.6,50.7,45.3,52.7,47.9,39.6,100,91,62,30.04,29.81,9,1,13,0.50